Location: Heidgraben
(53.7081°N, 9.6576°E)
Time: 20:59:21
(UTC+00:00)

Cosmos 332 Rocket - Pass Details

Date: 05 July 2020
Orbit: 682 x 703 km, 74.0° (Epoch: 14 August)

Event Time Altitude Azimuth Distance (km) Brightness Sun altitude
Rises 23:11:12 0° 332° (NNW) 3,059 8.4 -13.6°
Reaches altitude 10° 23:13:31 10° 330° (NNW) 2,139 7.4 -13.6°
Maximum altitude 23:18:18 70° 248° (WSW) 731 3.8 -13.6°
Enters shadow 23:21:31 21° 168° (SSE) 1,539 5.0 -13.6°
